Terminal Aerodrome Forecast
Issued by NWS Spokane, WA

Home | Current Version | Previous Version | Text Only | Print | Product List | Glossary On
Versions: 1 2 3 4 5 6 7 8 9 10 11 12 13 14 15 16 17 18 19 20 21 22 23 24 25 26 27 28 29 30 31 32 33 34 35 36 37 38 39 40 41 42 43 44 45 46 47 48 49 50
000
FTUS46 KOTX 202358 CCA
TAFGEG
TAF COR
KGEG 202358Z 2100/2124 15006KT 5SM -RA BR BKN006 OVC012
     FM210300 20014KT 1SM -RA BR OVC003
     FM210900 22015G18KT 3SM BR VCSH OVC004 WS016/23048KT
     FM211200 23022G30KT 5SM BR BKN009 OVC100
     FM211800 23018G30KT P6SM SCT015 BKN090=

USA.gov is the U.S. government's official web portal to all federal, state and local government web resources and services.